Date String (YYYY-MM-DD hh:mm:ss) UTC,Instrument flags,absolute air pressure of the measurement (hPa),sample flow rate (lpm),inlet stack bypass flow (lpm),air temperature of the measurement (°C),ambient temperature measured by the external sensor (°C),aerosol sample conditioner tube jacket temperature (°C),OPC LED temperature (°C),internal box temperature (°C),relative humidity of the measurement (%),span deviation,mass concentration of particles derived from Lorenz-Mie calculation of OPC scattering (μg/m³),mass concentration of particles derived from Lorenz-Mie calculation of OPC scattering (μg/m³),mass concentration of particles derived from Lorenz-Mie calculation of OPC scattering (μg/m³)
DateTimeUTC,F1_M11,P_M11,Q1_M11,Q2_M11,T1_M11,T2_M11,T3_M11,T4_M11,T5_M11,U1_M11,ZSPAN_M11,X0_M11,X2_M11,X1_M11
2023-12-21 20:00:00,SystemResetWarning,0831.6,4.99,000.00,026.1,025.1,000.0,034.2,027.7,13.4,0000.0,0009.80,0003.57,0002.96
2023-12-21 20:01:00,SystemResetWarning,0831.6,5.00,000.00,026.1,023.3,000.0,034.2,027.6,13.3,0000.0,0010.53,0003.56,0002.94
2023-12-21 20:02:00,SystemResetWarning,0831.6,5.01,000.00,026.0,022.6,000.0,034.1,027.4,13.3,0000.0,0010.50,0003.54,0002.88
2023-12-21 20:03:00,SystemResetWarning,0831.5,5.01,000.00,025.9,022.8,000.0,034.1,026.9,13.4,0000.0,0010.45,0003.50,0002.81
2023-12-21 20:04:00,SystemResetWarning,0831.6,4.99,000.00,025.8,023.1,000.0,034.1,026.9,13.5,0000.0,0010.28,0003.43,0002.74
2023-12-21 20:05:00,SystemResetWarning,0831.5,5.00,000.00,025.8,023.5,000.0,034.0,027.0,13.5,0000.0,0010.11,0003.34,0002.67
2023-12-21 20:06:00,SystemResetWarning,0831.6,4.99,000.00,025.8,023.8,000.0,034.0,027.0,13.5,0000.0,0009.32,0003.29,0002.62
2023-12-21 20:07:00,SystemResetWarning,0831.5,5.01,000.00,025.8,024.1,000.0,034.0,027.1,13.5,0000.0,0008.33,0003.24,0002.55
2023-12-21 20:08:00,SystemResetWarning,0831.6,5.00,000.00,025.8,024.3,000.0,034.0,027.2,13.5,0000.0,0008.29,0003.21,0002.50
2023-12-21 20:09:00,SystemResetWarning,0831.6,4.99,000.00,025.8,024.5,000.0,034.0,027.3,13.5,0000.0,0008.26,0003.22,0002.47
2023-12-21 20:10:00,SystemResetWarning,0831.6,5.00,000.00,025.9,024.7,000.0,034.0,027.4,13.5,0000.0,0008.27,0003.17,0002.40
2023-12-21 20:11:00,SystemResetWarning,0831.6,5.00,000.00,025.9,024.8,000.0,034.0,027.4,13.4,0000.0,0008.13,0003.12,0002.34
2023-12-21 20:12:00,SystemResetWarning,0831.6,5.00,000.00,025.9,024.9,000.0,034.0,027.5,13.3,0000.0,0007.48,0003.06,0002.29
2023-12-21 20:13:00,SystemResetWarning,0831.6,5.00,000.00,026.0,025.1,000.0,034.0,027.6,13.3,0000.0,0007.06,0003.00,0002.26
2023-12-21 20:14:00,SystemResetWarning,0831.6,5.00,000.00,026.0,025.2,000.0,034.1,027.6,13.4,0000.0,0006.79,0002.96,0002.27
2023-12-21 20:15:00,SystemResetWarning,0831.5,5.00,000.00,026.0,025.2,000.0,034.1,027.6,13.3,0000.0,0007.85,0002.92,0002.25
2023-12-21 20:16:00,SystemResetWarning,0831.5,4.99,000.00,026.1,025.0,000.0,034.1,027.7,13.3,0000.0,0007.06,0002.90,0002.23
2023-12-21 20:17:00,SystemResetWarning,0831.5,5.00,000.00,026.0,023.1,000.0,034.1,027.5,13.3,0000.0,0006.85,0002.84,0002.20
2023-12-21 20:18:00,SystemResetWarning,0831.5,5.01,000.00,025.9,021.7,000.0,034.1,027.2,13.4,0000.0,0006.85,0002.82,0002.18
2023-12-21 20:19:00,SystemResetWarning,0831.5,5.01,000.00,025.8,021.8,000.0,034.0,026.9,13.4,0000.0,0007.43,0002.72,0002.16
2023-12-21 20:20:00,SystemResetWarning,0831.5,5.00,000.00,025.6,022.2,000.0,033.9,026.5,13.6,0000.0,0007.72,0002.62,0002.11
2023-12-21 20:21:00,SystemResetWarning,0831.5,5.00,000.00,025.6,022.6,000.0,033.9,026.6,13.6,0000.0,0007.57,0002.63,0002.11
2023-12-21 20:22:00,SystemResetWarning,0831.5,4.99,000.00,025.5,023.1,000.0,033.9,026.7,13.6,0000.0,0007.54,0002.60,0002.10
2023-12-21 20:23:00,SystemResetWarning,0831.5,4.99,000.00,025.5,023.4,000.0,033.9,026.8,13.6,0000.0,0007.54,0002.59,0002.07
2023-12-21 20:24:00,SystemResetWarning,0831.5,5.00,000.00,025.6,023.7,000.0,033.8,026.9,13.6,0000.0,0007.55,0002.57,0002.06
2023-12-21 20:25:00,SystemResetWarning,0831.5,5.01,000.00,025.6,024.0,000.0,033.8,027.0,13.5,0000.0,0007.64,0002.59,0002.07
2023-12-21 20:26:00,SystemResetWarning,0831.5,5.01,000.00,025.6,024.2,000.0,033.8,027.0,13.6,0000.0,0006.75,0002.69,0002.10
2023-12-21 20:27:00,SystemResetWarning,0831.5,5.00,000.00,025.6,024.4,000.0,033.8,027.1,13.6,0000.0,0006.26,0002.74,0002.10
2023-12-21 20:28:00,SystemResetWarning,0831.5,4.99,000.00,025.7,024.5,000.0,033.8,027.2,13.6,0000.0,0006.42,0002.83,0002.12
2023-12-21 20:29:00,SystemResetWarning,0831.5,4.99,000.00,025.7,024.7,000.0,033.8,027.3,13.5,0000.0,0006.89,0002.88,0002.12
2023-12-21 20:30:00,SystemResetWarning,0831.5,5.01,000.00,025.8,024.8,000.0,033.8,027.4,13.5,0000.0,0006.64,0002.91,0002.12
2023-12-21 20:31:00,SystemResetWarning,0831.5,5.01,000.00,025.8,024.9,000.0,033.9,027.4,13.5,0000.0,0005.89,0002.93,0002.13
2023-12-21 20:32:00,SystemResetWarning,0831.5,5.00,000.00,025.8,025.0,000.0,033.9,027.4,13.4,0000.0,0005.83,0002.88,0002.13
2023-12-21 20:33:00,SystemResetWarning,0831.4,4.99,000.00,025.9,025.1,000.0,033.9,027.5,13.3,0000.0,0006.16,0002.96,0002.14
2023-12-21 20:34:00,SystemResetWarning,0831.4,5.00,000.00,025.9,025.2,000.0,033.9,027.5,13.4,0000.0,0006.46,0003.03,0002.16
2023-12-21 20:35:00,SystemResetWarning,0831.5,5.00,000.00,026.0,025.1,000.0,034.0,027.6,13.4,0000.0,0007.06,0003.04,0002.18
2023-12-21 20:36:00,SystemResetWarning,0831.5,5.00,000.00,026.0,023.5,000.0,034.0,027.5,13.3,0000.0,0006.83,0003.00,0002.17
2023-12-21 20:37:00,SystemResetWarning,0831.4,5.00,000.00,025.9,022.6,000.0,033.9,027.3,13.3,0000.0,0006.63,0002.93,0002.16
2023-12-21 20:38:00,SystemResetWarning,0831.4,5.01,000.00,025.8,022.6,000.0,033.9,026.9,13.6,0000.0,0006.63,0002.92,0002.16
2023-12-21 20:39:00,SystemResetWarning,0831.4,5.00,000.00,025.7,023.0,000.0,033.9,026.7,13.6,0000.0,0006.36,0002.86,0002.15
2023-12-21 20:40:00,SystemResetWarning,0831.3,5.00,000.00,025.6,023.3,000.0,033.8,026.8,13.6,0000.0,0006.08,0002.85,0002.17
2023-12-21 20:41:00,SystemResetWarning,0831.3,5.00,000.00,025.6,023.6,000.0,033.8,026.9,13.6,0000.0,0005.67,0002.91,0002.20
2023-12-21 20:42:00,SystemResetWarning,0831.3,4.99,000.00,025.6,023.9,000.0,033.8,027.0,13.6,0000.0,0006.52,0003.01,0002.24
2023-12-21 20:43:00,SystemResetWarning,0831.4,4.99,000.00,025.6,024.1,000.0,033.8,027.1,13.6,0000.0,0006.80,0003.09,0002.30
2023-12-21 20:44:00,SystemResetWarning,0831.3,5.01,000.00,025.7,024.3,000.0,033.8,027.2,13.6,0000.0,0007.07,0003.10,0002.33
2023-12-21 20:45:00,SystemResetWarning,0831.3,5.00,000.00,025.7,024.5,000.0,033.8,027.2,13.6,0000.0,0007.06,0003.09,0002.36
2023-12-21 20:46:00,SystemResetWarning,0831.3,5.00,000.00,025.7,024.7,000.0,033.9,027.3,13.5,0000.0,0006.40,0003.14,0002.41
2023-12-21 20:47:00,SystemResetWarning,0831.3,5.01,000.00,025.8,024.8,000.0,033.9,027.3,13.5,0000.0,0007.17,0003.23,0002.45
2023-12-21 20:48:00,SystemResetWarning,0831.4,4.98,000.00,025.8,024.9,000.0,033.9,027.4,13.4,0000.0,0007.34,0003.24,0002.50
2023-12-21 20:49:00,SystemResetWarning,0831.4,4.99,000.00,025.9,025.0,000.0,033.9,027.4,13.4,0000.0,0007.48,0003.25,0002.54
2023-12-21 20:50:00,SystemResetWarning,0831.4,5.00,000.00,025.9,025.1,000.0,033.9,027.5,13.4,0000.0,0008.10,0003.30,0002.59
2023-12-21 20:51:00,SystemResetWarning,0831.3,4.99,000.00,025.9,024.3,000.0,034.0,027.5,13.4,0000.0,0008.72,0003.34,0002.62
2023-12-21 20:52:00,SystemResetWarning,0831.3,5.01,000.00,025.9,022.7,000.0,033.9,027.3,13.4,0000.0,0008.74,0003.36,0002.65
2023-12-21 20:53:00,SystemResetWarning,0831.3,5.01,000.00,025.8,022.5,000.0,033.9,027.1,13.4,0000.0,0008.69,0003.35,0002.67
2023-12-21 20:54:00,SystemResetWarning,0831.3,5.00,000.00,025.7,022.8,000.0,033.9,026.7,13.5,0000.0,0009.38,0003.39,0002.71
2023-12-21 20:55:00,SystemResetWarning,0831.3,5.00,000.00,025.6,023.1,000.0,033.8,026.8,13.6,0000.0,0009.23,0003.44,0002.74
2023-12-21 20:56:00,SystemResetWarning,0831.3,5.00,000.00,025.6,023.5,000.0,033.8,026.9,13.7,0000.0,0009.20,0003.46,0002.76
2023-12-21 20:57:00,SystemResetWarning,0831.3,5.00,000.00,025.6,023.8,000.0,033.8,027.0,13.7,0000.0,0009.24,0003.45,0002.77
2023-12-21 20:58:00,SystemResetWarning,0831.3,5.00,000.00,025.6,024.0,000.0,033.8,027.0,13.6,0000.0,0008.91,0003.42,0002.79
2023-12-21 20:59:00,SystemResetWarning,0831.3,4.99,000.00,025.6,024.2,000.0,033.8,027.1,13.6,0000.0,0008.89,0003.46,0002.82
